Mombasa, Kenya

2:38 PM EAT on August 30, 2016 (GMT +0300)
Moi

Weather History for HKMO - August, 2013

Change the Weather History Date:

Wednesday, August 7, 2013

  Actual Average Record
Temperature  
Mean Temperature 73 °F -  
Max Temperature 80 °F 84 °F 86 °F (2012)
Min Temperature 66 °F 67 °F 66 °F (1996)
Cooling Degree Days 8    
Growing Degree Days 23 (Base 50)    
Moisture  
Dew Point 69 °F    
Average Humidity 84    
Maximum Humidity 100    
Minimum Humidity 69    
Precipitation  
Precipitation 0.00 in 0.09 in - ()
Sea Level Pressure  
Sea Level Pressure 30.02 in    
Wind  
Wind Speed 5 mph ()    
Max Wind Speed 15 mph    
Max Gust Speed -    
Visibility 7.6 miles    
Events      
Averages and records for this station are not official NWS values.
T = Trace of Precipitation, MM = Missing Value Source: Averaged Metar Reports

Daily Weather History Graph

Daily Weather History Graph

Search for Another Location

Airport or City:

Trip Planner

Search our weather history database for the weather conditions in past years. The results will help you decide how hot, cold, wet, or windy it might be!

Date:

Astronomy

Aug. 07, 2013 Rise Set
Actual Time 6:28 AM EAT 6:26 PM EAT
Civil Twilight 6:07 AM EAT 6:47 PM EAT
Nautical Twilight 5:41 AM EAT 7:12 PM EAT
Astronomical Twilight 5:16 AM EAT 7:37 PM EAT
Moon 6:34 AM EAT (8/7) 6:50 PM EAT (8/7)
Length of Visible Light 12h 40m
Length of Day
11h 57m
New Moon, 0% of the Moon is Illuminated
Aug 7
New Moon
Aug 14
First Quarter
Aug 21
Full
Aug 28
Last Quarter
Sep 5
New

Hourly Weather History & Observations

Time (EAT) Temp. Heat Index Dew Point Humidity Pressure Visibility Wind Dir Wind Speed Gust Speed Precip Events Conditions
12:00 AM 69.8 °F - 68.0 °F 94% 30.04 in 6.2 mi Calm Calm - N/A   Partly Cloudy
1:00 AM 69.8 °F - 68.0 °F 94% 30.01 in 6.2 mi Calm Calm - N/A   Partly Cloudy
1:30 AM 69.8 °F - 68.0 °F 94% 30.01 in 6.2 mi Calm Calm - N/A   Partly Cloudy
2:30 AM 68.0 °F - 68.0 °F 100% 29.98 in 6.2 mi Calm Calm - N/A   Partly Cloudy
3:00 AM 69 °F - 68 °F 94% 30.07 in 16 mi Calm Calm - -   Scattered Clouds
4:00 AM 68.0 °F - 68.0 °F 100% 29.98 in 6.2 mi Calm Calm - N/A   Partly Cloudy
5:00 AM 68.0 °F - 66.2 °F 94% 29.98 in 6.2 mi Calm Calm - N/A   Partly Cloudy
6:00 AM 68.0 °F - 66.2 °F 94% 30.01 in 6.2 mi WSW 4.6 mph - N/A   Scattered Clouds
7:00 AM 68.0 °F - 66.2 °F 94% 30.01 in 6.2 mi SW 8.1 mph - N/A   Partly Cloudy
8:00 AM 71.6 °F - 68.0 °F 88% 30.04 in 6.2 mi SW 9.2 mph - N/A   Partly Cloudy
9:00 AM 74 °F - 70 °F 84% 30.06 in 19 mi SSW 9.2 mph - -   Scattered Clouds
9:00 AM 75.2 °F - 69.8 °F 83% 30.06 in 6.2 mi SSW 9.2 mph - N/A   Partly Cloudy
10:00 AM 77.0 °F - 69.8 °F 78% 30.06 in 6.2 mi South 12.7 mph - N/A   Mostly Cloudy
11:00 AM 78.8 °F - 68.0 °F 69% 30.06 in 6.2 mi South 15.0 mph - N/A   Scattered Clouds
12:00 PM 80.6 °F 83.9 °F 69.8 °F 70% 30.04 in 6.2 mi SSE 11.5 mph - N/A   Mostly Cloudy
1:00 PM 80.6 °F 83.9 °F 69.8 °F 70% 30.04 in 6.2 mi SSE 11.5 mph - N/A   Mostly Cloudy
2:00 PM 80.6 °F 83.9 °F 69.8 °F 70% 30.01 in 6.2 mi South 12.7 mph - N/A   Mostly Cloudy
3:00 PM 80.6 °F 83.9 °F 69.8 °F 70% 29.98 in 6.2 mi SSE 13.8 mph - N/A   Mostly Cloudy
4:00 PM 78.8 °F - 69.8 °F 74% 29.98 in 6.2 mi SSE 9.2 mph - N/A   Mostly Cloudy
5:00 PM 78.8 °F - 69.8 °F 74% 29.98 in 6.2 mi SSE 6.9 mph - N/A   Scattered Clouds
6:00 PM 77.0 °F - 69.8 °F 78% 29.98 in 6.2 mi South 13.8 mph - N/A   Mostly Cloudy
7:00 PM 75.2 °F - 69.8 °F 83% 30.01 in 6.2 mi South 11.5 mph - N/A   Mostly Cloudy
8:00 PM 75.2 °F - 69.8 °F 83% 30.01 in 6.2 mi SSE 12.7 mph - N/A   Scattered Clouds
9:00 PM 75 °F - 70 °F 79% 30.03 in 19 mi SSE 11.5 mph - -   Scattered Clouds
9:00 PM 75.2 °F - 69.8 °F 83% 30.04 in 6.2 mi SSE 11.5 mph - N/A   Partly Cloudy
10:00 PM 75.2 °F - 69.8 °F 83% 30.04 in 6.2 mi South 9.2 mph - N/A   Partly Cloudy